This is the latest recevied weather packets stored in our database for station/object K8JCL-13. If no packets are shown the sender has not sent any weather packets the latest 10 day(s).
| Time | Temp. | Humidity | Pressure | Rain* | Wind** | Luminosity | Snow |
|---|---|---|---|---|---|---|---|
| 1777724831 | 4.44° C | 75% | 1018.2 hPa | 0 mm | - | 135 W/m² | - |
| 1777724527 | 4.44° C | 75% | 1018.1 hPa | 0 mm | - | 52 W/m² | - |
| 1777724226 | 4.44° C | 76% | 1018.3 hPa | 0 mm | - | 73 W/m² | - |
| 1777723923 | 3.89° C | 77% | 1018.4 hPa | 0 mm | - | 92 W/m² | - |
| 1777723619 | 3.89° C | 78% | 1018.4 hPa | 0 mm | - | 37 W/m² | - |
| 1777723316 | 3.89° C | 79% | 1018.2 hPa | 0 mm | - | 34 W/m² | - |
| 1777723014 | 3.89° C | 79% | 1018.2 hPa | 0 mm | - | 36 W/m² | - |
| 1777722710 | 3.89° C | 79% | 1017.9 hPa | 0 mm | - | 33 W/m² | - |
| 1777722406 | 3.89° C | 79% | 1018.2 hPa | 0 mm | - | 45 W/m² | - |
| 1777722104 | 3.33° C | 79% | 1018 hPa | 0 mm | - | 28 W/m² | - |
| 1777721801 | 3.89° C | 79% | 1018 hPa | 0 mm | - | 27 W/m² | - |
| 1777721499 | 3.33° C | 80% | 1018.2 hPa | 0 mm | - | 32 W/m² | - |
| 1777721197 | 3.33° C | 80% | 1018 hPa | 0 mm | - | 27 W/m² | - |
| 1777720894 | 3.33° C | 81% | 1018.1 hPa | 0 mm | - | 23 W/m² | - |
| 1777720591 | 3.33° C | 81% | 1017.9 hPa | 0 mm | - | 19 W/m² | - |
| 1777720289 | 2.78° C | 82% | 1017.9 hPa | 0 mm | - | 16 W/m² | - |
| 1777719986 | 2.78° C | 82% | 1017.8 hPa | 0 mm | - | 13 W/m² | - |
| 1777719683 | 2.78° C | 83% | 1017.7 hPa | 0 mm | - | 11 W/m² | - |
| 1777719381 | 2.78° C | 83% | 1017.6 hPa | 0 mm | - | 9 W/m² | - |
| 1777719078 | 2.78° C | 81% | 1017.7 hPa | 0 mm | - | 7 W/m² | - |
| 1777718775 | 2.78° C | 80% | 1017.7 hPa | 0 mm | - | 5 W/m² | - |
| 1777718472 | 2.78° C | 81% | 1017.8 hPa | 0 mm | - | 3 W/m² | - |
| 1777718170 | 2.78° C | 81% | 1017.8 hPa | 0 mm | - | 2 W/m² | - |
| 1777717868 | 2.78° C | 82% | 1017.9 hPa | 0 mm | - | 1 W/m² | - |
| 1777717564 | 2.78° C | 81% | 1017.9 hPa | 0 mm | - | 0 W/m² | - |
* Rain latest hour (hover to see other rain measurements)
** Current wind speed in m/s (hover to see current wind gust speed)